Location: Newark
(49.8969°N, 3.3422°E)
Time: 15:50:45
(UTC+00:00)

Explorer 7 - Pass Details

Date: 24 January 2020
Orbit: 485 x 679 km, 50.3° (Epoch: 16 February)

Event Time Altitude Azimuth Distance (km) Brightness Sun altitude
Rises 01:46:05 0° 270° (W) 2,549 - -52.7°
Reaches altitude 10° 01:48:14 10° 272° (W) 1,674 - -52.5°
Maximum altitude 01:52:01 83° 359° (N) 505 - -52.0°
Drops below altitude 10° 01:55:55 10° 89° (E) 1,727 - -51.6°
Sets 01:58:09 0° 90° (E) 2,639 - -51.3°
